FALCON 9 R/B (43464 NORAD) Tracking and Keplerian Element Data

This shows tracking and keplerian element data for the satellite.

Feedback or suggestion? Click here.




ElementValue
Catalog43464
NameFALCON 9 R/B
Epoch Orbit65
Epoch Day159.85553676
Epoch Year2018
RAAN355.2273
Inclination19.3034
Eccentricity0.7247089
Argument of Perigee198.8173
Mean Anonmoly105.6202
Mean Motion2.29684512
Decay Rate3.14E-06
L11 43464U 18044B 18159.85553676 .00000314 00000-0 24815-3 0 9998
L22 43464 19.3034 355.2273 7247089 198.8173 105.6202 2.29684512 650

Live tracking and technical data element details for FALCON 9 R/B (NORAD 43464). FALCON 9 R/B can be tracked NOW for your location showing map with azimuth and elevation plus other details from your city location.

Track the satellite on the map from your city or location and see movement details for azimuth, elevation, latitude, longitude, range, height, and movement on the map or in text.







IsCatalogInMostPopularTable: catalog: 43464, numindb: 57
Update: records affected: 1



GetName: 43464 FALCON 9 R/B

Hit Count: updated at: Fri, 16 Nov 2018 03:13:32 GMT